THOR AGENA B DEB, 511

Orbit data source: Space-Track

THOR AGENA B DEB, 511 is space debris in LEO originally from a launch on Sat, 29 Sep 1962 UTC launched from the Air Force Western Test Range (AFWTR). Debris objects in space refer to the collection of defunct objects orbiting the Earth. Examples of debris include non-operational satellites, rocket bodies, and fragments generated from explosions, collisions, or faulty payload assembly.

Loading next visibility...
Identifier
511, 1962-049D
Orbit
LEO
Last TLE update
20 hours ago
Origin
Manufacturer
Unknown
Mission
Spacecraft
Bus & Motor
Unknown
Mass
Unknown
Launch date (UTC)
1962-09-29 (63 years ago)
Launch vehicle
Unknown
Launch site
Air Force Western Test Range (AFWTR)
Object type
Payload
Rocket body
Debris
Shape & HBR
Unknown
Radar Cross Section
Small (<0.1 m²)

Expand to show TLE details & history

TLE from 20 hours ago
0 THOR AGENA B DEB
1 00511U 62049D   25183.45289897  .00000058  00000-0  57326-4 0  9999
2 00511  80.4266 178.7570 0031970 154.6477 334.5803 13.68512362131743
Epoch: 2025-07-02T10:52Z
TLE epoch observation values (Epoch: 2025-07-02T10:52:10.47Z)
Latitude
50.05542°
Longitude
-96.57787°
Altitude
991.491 km
Speed
7.371 km/s
True Right ascension
23h 08m 47s
True Declination
49° 53' 29"
Sunlit
Object was in daylight at epoch
Visualization orbit readout
Latitude
-21.54447°
Longitude
-82.0342°
Altitude
997.432 km
Speed
7.36 km/s
Apparent Right ascension
02h 32m 24s
Apparent Declination
-39° 19' 58"
Sunlit
Object is in daylight
Visualization observer readout
Local Sidereal Time
18:17:01
Azimuth
108.079° ESE
Elevation
-47.486°
Doppler factor
1
Orbital elements
Apogee altitude
1,025.782 km
Perigee altitude
978.592 km
Semi-major axis
7,380.324 km
Eccentricity
0.0032
Inclination
80.4266°
RAAN
178.757°
Arg. of periapsis
154.6477°
True anomaly
Unknown
Mean anomaly
334.5803°
Eccentric anomaly
Unknown
Mean motion
3.42318 °/min
Orbital period
105.17 mins
BSTAR
0.000057326
Loading maneuver chart data...
Loading SW <> Apogee altitude chart data...
Loading historical data...
Loading historical data...
Loading historical data...
Loading historical data...
Loading historical data...
Loading historical data...
Loading historical data...
Other satellites on launch #49 in the year 1962 (1962-09-29 UTC)

THOR AGENA B DEB Visibility forecast

Observer location: undefined°, undefined°

Span
Click to sort rows by Start time (UTC) header in descending order
Start Az.
Max El. time (UTC)
Max El. Az.
Max El.
End time (UTC)
End Az.
4 mins2025-07-03 09:39:20.129Z37.89° NE2025-07-03 09:41:20.129Z56.997° ENE12.246°2025-07-03 09:43:20.129Z76.871° E
10 mins2025-07-03 11:24:20.129Z351.293° N2025-07-03 11:29:20.129Z140.073° SSE44.689°2025-07-03 11:34:20.129Z169.162° S
8 mins2025-07-03 23:13:20.129Z127.921° SE2025-07-03 23:17:20.129Z82.183° E21.139°2025-07-03 23:21:20.129Z41.031° NE
10 mins2025-07-04 00:58:20.129Z213.667° SW2025-07-04 01:03:20.129Z300.866° NW38.262°2025-07-04 01:08:20.129Z358.926° N
|